GW0245 Weather Reports


Display with metric or nautical units.
time (UTC)temp
F
wind
direction
speed
MPH
gust
MPH
rain 1hr
in
rain 24hr
in
rain mn
in
humidity
%
barometer
mb
20260508151600 70 43 0.0 3.0 0.00 0.00 0.00 19 1017.2
20260508150053 68 0 0.0 2.0 0.00 0.00 0.00 20 1017.1
20260508144556 67 0 0.0 3.0 0.00 0.00 0.00 21 1017.2
20260508143101 66 0 0.0 1.0 0.00 0.00 0.00 22 1017.2
20260508141556 64 0 0.0 2.0 0.00 0.00 0.00 22 1017.2
20260508140059 64 44 0.0 4.0 0.00 0.00 0.00 22 1017.0
20260508134557 63 0 0.0 1.0 0.00 0.00 0.00 22 1016.8
20260508133100 60 0 0.0 1.0 0.00 0.00 0.00 24 1016.7
20260508131558 58 0 0.0 1.0 0.00 0.00 0.00 27 1016.6
20260508130106 55 0 0.0 4.0 0.00 0.00 0.00 27 1016.5
20260508124556 54 0 0.0 0.0 0.00 0.00 0.00 27 1016.2
20260508123058 55 0 0.0 0.0 0.00 0.00 0.00 26 1016.2
20260508121629 56 119 0.0 3.0 0.00 0.00 0.00 26 1016.0
20260508120057 56 0 0.0 1.0 0.00 0.00 0.00 26 1015.9
20260508114555 55 0 0.0 3.0 0.00 0.00 0.00 26 1015.7
20260508113054 56 0 0.0 1.0 0.00 0.00 0.00 26 1015.8
20260508111553 57 0 0.0 1.0 0.00 0.00 0.00 25 1015.7
20260508110059 56 279 0.0 4.0 0.00 0.00 0.00 25 1015.7
20260508104600 57 0 0.0 1.0 0.00 0.00 0.00 24 1015.6
20260508103056 57 0 0.0 0.0 0.00 0.00 0.00 24 1015.5
20260508101557 58 0 0.0 1.0 0.00 0.00 0.00 24 1015.5
20260508094600 59 0 0.0 1.0 0.00 0.00 0.00 23 1015.3
20260508093056 60 0 0.0 1.0 0.00 0.00 0.00 22 1015.1
20260508091604 60 0 0.0 1.0 0.00 0.00 0.00 22 1015.3
20260508090108 61 0 0.0 3.0 0.00 0.00 0.00 22 1015.4
20260508084557 61 254 0.0 3.0 0.00 0.00 0.00 21 1015.4
20260508083055 62 0 0.0 4.0 0.00 0.00 0.00 21 1015.3
20260508081608 61 248 1.0 4.0 0.00 0.00 0.00 22 1015.3
20260508080056 61 0 0.0 4.0 0.00 0.00 0.00 22 1015.4
20260508074556 62 253 0.0 3.0 0.00 0.00 0.00 22 1015.6
20260508073104 63 273 1.0 4.0 0.00 0.00 0.00 21 1015.6
20260508071613 63 263 1.0 4.0 0.00 0.00 0.00 21 1015.6
20260508064556 64 296 0.0 2.0 0.00 0.00 0.00 20 1015.6
20260508063054 65 0 0.0 4.0 0.00 0.00 0.00 20 1015.5
20260508061556 65 260 1.0 4.0 0.00 0.00 0.00 20 1015.5
20260508060058 65 0 0.0 3.0 0.00 0.00 0.00 20 1015.4
20260508054608 67 275 0.0 2.0 0.00 0.00 0.00 18 1015.5
20260508053055 69 275 0.0 3.0 0.00 0.00 0.00 16 1015.5
20260508051553 70 336 0.0 6.0 0.00 0.00 0.00 16 1015.4
20260508050057 70 0 0.0 2.0 0.00 0.00 0.00 16 1015.3
20260508044601 74 0 1.0 6.0 0.00 0.00 0.00 14 1015.0
20260508043054 74 40 1.0 10.0 0.00 0.00 0.00 14 1014.7
20260508041554 76 39 4.0 9.0 0.00 0.00 0.00 14 1014.4
20260508040059 77 274 5.0 15.0 0.00 0.00 0.00 14 1013.8
20260508034555 77 261 7.0 15.0 0.00 0.00 0.00 14 1013.5
20260508033113 77 251 8.0 19.0 0.00 0.00 0.00 14 1013.4
20260508031556 76 265 7.0 13.0 0.00 0.00 0.00 12 1013.2
20260508030108 76 238 4.0 9.0 0.00 0.00 0.00 10 1013.1
20260508024616 75 271 3.0 7.0 0.00 0.00 0.00 11 1012.9
20260508023055 75 231 4.0 7.0 0.00 0.00 0.00 11 1012.5
20260508021558 76 229 3.0 5.0 0.00 0.00 0.00 11 1012.5
20260508020111 78 234 1.0 5.0 0.00 0.00 0.00 11 1012.4
20260508014613 81 228 2.0 6.0 0.00 0.00 0.00 10 1012.2
20260508013108 84 231 1.0 5.0 0.00 0.00 0.00 9 1012.2
20260508011603 84 0 0.0 7.0 0.00 0.00 0.00 8 1012.2
20260508010105 86 0 1.0 8.0 0.00 0.00 0.00 8 1012.1
20260508004556 86 182 1.0 6.0 0.00 0.00 0.00 10 1012.1
20260508003053 85 164 2.0 9.0 0.00 0.00 0.00 10 1012.1
20260508001559 86 173 3.0 8.0 0.00 0.00 0.00 10 1012.1
20260508000057 87 190 5.0 16.0 0.00 0.00 0.00 10 1012.1
20260507234554 86 220 1.0 5.0 0.00 0.00 0.00 10 1012.2
20260507233055 86 44 1.0 5.0 0.00 0.00 0.00 10 1012.4
20260507231557 86 36 1.0 8.0 0.00 0.00 0.00 10 1012.5
20260507230057 86 71 4.0 9.0 0.00 0.00 0.00 10 1012.4
20260507224555 86 132 2.0 6.0 0.00 0.00 0.00 10 1012.6
20260507223058 86 0 2.0 7.0 0.00 0.00 0.00 10 1012.9
20260507221555 86 283 3.0 8.0 0.00 0.00 0.00 10 1013.2
20260507220055 86 304 3.0 9.0 0.00 0.00 0.00 10 1013.6
20260507214556 84 123 1.0 9.0 0.00 0.00 0.00 11 1013.8
20260507213059 85 184 2.0 10.0 0.00 0.00 0.00 10 1014.0
20260507211555 85 0 1.0 11.0 0.00 0.00 0.00 10 1014.2
20260507210057 85 69 4.0 11.0 0.00 0.00 0.00 9 1014.5
20260507204554 85 232 4.0 10.0 0.00 0.00 0.00 9 1014.7
20260507203056 85 335 5.0 9.0 0.00 0.00 0.00 10 1015.1
20260507201555 84 288 4.0 9.0 0.00 0.00 0.00 8 1015.3
20260507200055 84 265 2.0 8.0 0.00 0.00 0.00 10 1015.6
20260507194556 83 22 1.0 8.0 0.00 0.00 0.00 11 1015.9
20260507193055 82 202 3.0 8.0 0.00 0.00 0.00 11 1016.1
20260507191602 82 281 6.0 11.0 0.00 0.00 0.00 12 1016.3
20260507190055 81 295 1.0 10.0 0.00 0.00 0.00 13 1016.7
20260507184556 81 90 4.0 8.0 0.00 0.00 0.00 14 1016.7
20260507183105 80 46 2.0 7.0 0.00 0.00 0.00 14 1016.9
20260507181555 79 0 1.0 6.0 0.00 0.00 0.00 14 1017.2
20260507180057 78 168 3.0 12.0 0.00 0.00 0.00 14 1017.4
20260507174556 77 105 1.0 6.0 0.00 0.00 0.00 15 1017.5
20260507173103 76 336 5.0 11.0 0.00 0.00 0.00 16 1017.7
20260507171559 75 37 2.0 6.0 0.00 0.00 0.00 16 1018.0
20260507170059 74 48 0.0 8.0 0.00 0.00 0.00 16 1018.1
20260507164557 74 70 2.0 6.0 0.00 0.00 0.00 17 1018.2
20260507163100 73 69 1.0 4.0 0.00 0.00 0.00 17 1018.3
20260507161559 72 147 1.0 5.0 0.00 0.00 0.00 17 1018.7
20260507160057 71 360 3.0 11.0 0.00 0.00 0.00 18 1018.7
20260507154555 70 50 2.0 4.0 0.00 0.00 0.00 17 1019.0
20260507153105 70 65 1.0 5.0 0.00 0.00 0.00 18 1019.0